| time (UTC) | temp C | wind direction | speed KPH | gust KPH | rain 1hr cm | rain 24hr cm | rain mn cm | humidity % | barometer mb |
| 20260507113205 | 8 | 75 | 3.2 | 8.0 | 0.03 | 0.48 | 0.43 | 91 | 1015.4 |
| 20260507112705 | 8 | 79 | 4.8 | 16.1 | 0.03 | 0.48 | 0.43 | 90 | 1015.3 |
| 20260507112205 | 8 | 79 | 3.2 | 11.3 | 0.03 | 0.58 | 0.43 | 90 | 1015.2 |
| 20260507111705 | 8 | 48 | 1.6 | 8.0 | 0.05 | 0.58 | 0.43 | 91 | 1015.2 |
| 20260507111205 | 8 | 90 | 3.2 | 6.4 | 0.05 | 0.58 | 0.43 | 91 | 1015.2 |
| 20260507110705 | 8 | 78 | 3.2 | 6.4 | 0.05 | 0.58 | 0.43 | 91 | 1015.1 |
| 20260507110205 | 8 | 31 | 1.6 | 11.3 | 0.05 | 0.58 | 0.43 | 92 | 1015.3 |
| 20260507105705 | 8 | 75 | 1.6 | 4.8 | 0.08 | 0.58 | 0.43 | 92 | 1015.2 |
| 20260507105205 | 7 | 89 | 1.6 | 4.8 | 0.08 | 0.58 | 0.43 | 92 | 1015.0 |
| 20260507104705 | 7 | 87 | 1.6 | 6.4 | 0.08 | 0.58 | 0.43 | 92 | 1015.1 |
| 20260507104205 | 7 | 80 | 3.2 | 8.0 | 0.10 | 0.58 | 0.43 | 92 | 1015.0 |
| 20260507103705 | 7 | 72 | 3.2 | 8.0 | 0.08 | 0.56 | 0.41 | 92 | 1015.1 |
| 20260507103205 | 7 | 110 | 4.8 | 8.0 | 0.08 | 0.56 | 0.41 | 92 | 1014.9 |
| 20260507102705 | 7 | 64 | 4.8 | 11.3 | 0.10 | 0.56 | 0.41 | 92 | 1015.0 |
| 20260507102205 | 7 | 45 | 4.8 | 8.0 | 0.10 | 0.58 | 0.41 | 92 | 1015.0 |
| 20260507101705 | 7 | 50 | 6.4 | 14.5 | 0.10 | 0.56 | 0.38 | 92 | 1014.9 |
| 20260507101205 | 7 | 43 | 8.0 | 11.3 | 0.10 | 0.56 | 0.38 | 91 | 1014.8 |
| 20260507100705 | 7 | 31 | 8.0 | 17.7 | 0.10 | 0.56 | 0.38 | 91 | 1014.8 |
| 20260507100205 | 7 | 21 | 9.7 | 16.1 | 0.13 | 0.56 | 0.38 | 91 | 1014.6 |
| 20260507095705 | 7 | 26 | 9.7 | 17.7 | 0.10 | 0.53 | 0.36 | 91 | 1014.7 |
| 20260507095205 | 7 | 21 | 8.0 | 14.5 | 0.10 | 0.53 | 0.36 | 91 | 1014.6 |
| 20260507094705 | 7 | 26 | 8.0 | 17.7 | 0.10 | 0.53 | 0.36 | 91 | 1014.5 |
| 20260507094205 | 7 | 55 | 6.4 | 17.7 | 0.08 | 0.51 | 0.33 | 91 | 1014.4 |
| 20260507093705 | 7 | 21 | 3.2 | 17.7 | 0.08 | 0.51 | 0.33 | 92 | 1014.3 |
| 20260507093205 | 7 | 31 | 4.8 | 8.0 | 0.10 | 0.51 | 0.33 | 92 | 1014.3 |
| 20260507092705 | 7 | 45 | 6.4 | 12.9 | 0.08 | 0.48 | 0.30 | 91 | 1014.1 |
| 20260507092205 | 7 | 45 | 4.8 | 12.9 | 0.08 | 0.48 | 0.30 | 91 | 1014.0 |
| 20260507091705 | 7 | 58 | 4.8 | 9.7 | 0.05 | 0.46 | 0.28 | 91 | 1014.0 |
| 20260507091205 | 7 | 31 | 4.8 | 12.9 | 0.05 | 0.46 | 0.28 | 91 | 1014.0 |
| 20260507090705 | 7 | 60 | 4.8 | 8.0 | 0.05 | 0.46 | 0.28 | 91 | 1013.8 |
| 20260507090205 | 7 | 767 | 3.2 | 9.7 | 0.03 | 0.43 | 0.25 | 92 | 1013.8 |
| 20260507085705 | 7 | 37 | 3.2 | 8.0 | 0.03 | 0.43 | 0.25 | 91 | 1013.7 |
| 20260507085205 | 7 | 50 | 6.4 | 8.0 | 0.05 | 0.43 | 0.25 | 91 | 1013.7 |
| 20260507084705 | 7 | 81 | 4.8 | 17.7 | 0.05 | 0.43 | 0.25 | 91 | 1013.7 |
| 20260507084205 | 7 | 35 | 4.8 | 11.3 | 0.05 | 0.43 | 0.25 | 91 | 1013.6 |
| 20260507083705 | 7 | 26 | 4.8 | 11.3 | 0.05 | 0.43 | 0.25 | 91 | 1013.6 |
| 20260507083205 | 7 | 38 | 6.4 | 8.0 | 0.03 | 0.41 | 0.23 | 91 | 1013.5 |
| 20260507082705 | 7 | 31 | 8.0 | 11.3 | 0.03 | 0.41 | 0.23 | 91 | 1013.4 |
| 20260507082205 | 7 | 37 | 6.4 | 16.1 | 0.03 | 0.41 | 0.23 | 90 | 1013.3 |
| 20260507081705 | 7 | 31 | 6.4 | 12.9 | 0.03 | 0.41 | 0.23 | 91 | 1013.2 |
| 20260507081205 | 7 | 42 | 6.4 | 11.3 | 0.03 | 0.41 | 0.23 | 91 | 1013.3 |
| 20260507080705 | 7 | 21 | 6.4 | 14.5 | 0.03 | 0.41 | 0.23 | 91 | 1013.2 |
| 20260507080205 | 7 | 38 | 4.8 | 11.3 | 0.03 | 0.41 | 0.23 | 91 | 1013.1 |
| 20260507075705 | 7 | 26 | 4.8 | 9.7 | 0.03 | 0.41 | 0.23 | 91 | 1013.1 |
| 20260507075205 | 7 | 31 | 8.0 | 12.9 | 0.00 | 0.38 | 0.20 | 91 | 1013.1 |
| 20260507074705 | 7 | 31 | 6.4 | 16.1 | 0.00 | 0.38 | 0.20 | 90 | 1013.0 |
| 20260507074205 | 7 | 26 | 4.8 | 12.9 | 0.00 | 0.38 | 0.20 | 90 | 1013.1 |
| 20260507073705 | 7 | 62 | 4.8 | 16.1 | 0.00 | 0.38 | 0.20 | 90 | 1012.9 |
| 20260507073205 | 7 | 35 | 4.8 | 11.3 | 0.00 | 0.38 | 0.20 | 90 | 1012.8 |
| 20260507072705 | 7 | 96 | 6.4 | 12.9 | 0.00 | 0.38 | 0.20 | 90 | 1012.9 |
| 20260507072205 | 7 | 31 | 6.4 | 14.5 | 0.00 | 0.46 | 0.20 | 91 | 1012.8 |
| 20260507071705 | 7 | 35 | 6.4 | 12.9 | 0.00 | 0.46 | 0.20 | 91 | 1012.7 |
| 20260507071205 | 6 | 97 | 8.0 | 12.9 | 0.00 | 0.46 | 0.20 | 90 | 1012.7 |
| 20260507070705 | 7 | 31 | 8.0 | 17.7 | 0.00 | 0.46 | 0.20 | 90 | 1012.7 |
| 20260507070205 | 6 | 16 | 9.7 | 17.7 | 0.00 | 0.46 | 0.20 | 90 | 1012.5 |
| 20260507065705 | 6 | 26 | 9.7 | 20.9 | 0.00 | 0.46 | 0.20 | 90 | 1012.6 |
| 20260507065205 | 6 | 21 | 8.0 | 16.1 | 0.00 | 0.46 | 0.20 | 90 | 1012.5 |
| 20260507064705 | 6 | 53 | 8.0 | 16.1 | 0.00 | 0.46 | 0.20 | 90 | 1012.5 |
| 20260507064205 | 6 | 45 | 8.0 | 14.5 | 0.00 | 0.46 | 0.20 | 90 | 1012.4 |
| 20260507063705 | 6 | 21 | 8.0 | 16.1 | 0.00 | 0.46 | 0.20 | 90 | 1012.5 |
| 20260507063205 | 6 | 43 | 8.0 | 16.1 | 0.00 | 0.46 | 0.20 | 89 | 1012.4 |
| 20260507062705 | 6 | 42 | 9.7 | 12.9 | 0.00 | 0.46 | 0.20 | 90 | 1012.2 |
| 20260507062205 | 6 | 38 | 9.7 | 17.7 | 0.00 | 0.76 | 0.20 | 89 | 1012.3 |
| 20260507061705 | 6 | 26 | 8.0 | 16.1 | 0.00 | 0.76 | 0.20 | 89 | 1012.1 |
| 20260507061205 | 6 | 21 | 9.7 | 16.1 | 0.00 | 0.76 | 0.20 | 89 | 1012.2 |
| 20260507060705 | 6 | 35 | 8.0 | 16.1 | 0.00 | 0.76 | 0.20 | 89 | 1012.0 |
| 20260507060205 | 6 | 26 | 6.4 | 14.5 | 0.00 | 0.76 | 0.20 | 90 | 1012.0 |
| 20260507055705 | 6 | 31 | 8.0 | 12.9 | 0.00 | 0.76 | 0.20 | 89 | 1012.0 |
| 20260507055205 | 6 | 35 | 8.0 | 14.5 | 0.00 | 0.76 | 0.20 | 89 | 1011.9 |
| 20260507054705 | 6 | 11 | 8.0 | 14.5 | 0.00 | 0.76 | 0.20 | 89 | 1011.8 |
| 20260507054205 | 6 | 43 | 8.0 | 14.5 | 0.00 | 0.76 | 0.20 | 89 | 1011.8 |
| 20260507053705 | 6 | 31 | 8.0 | 16.1 | 0.00 | 0.76 | 0.20 | 89 | 1011.7 |
| 20260507053205 | 6 | 40 | 9.7 | 16.1 | 0.00 | 0.76 | 0.20 | 89 | 1011.7 |
| 20260507052705 | 6 | 16 | 8.0 | 16.1 | 0.00 | 0.76 | 0.20 | 89 | 1011.7 |
| 20260507052205 | 6 | 31 | 9.7 | 14.5 | 0.00 | 1.04 | 0.20 | 90 | 1011.6 |
| 20260507051705 | 6 | 31 | 11.3 | 16.1 | 0.00 | 1.04 | 0.20 | 89 | 1011.5 |
| 20260507051205 | 6 | 26 | 11.3 | 19.3 | 0.00 | 1.04 | 0.20 | 90 | 1011.5 |
| 20260507050705 | 6 | 21 | 9.7 | 19.3 | 0.00 | 1.04 | 0.20 | 90 | 1011.3 |
| 20260507050205 | 6 | 31 | 9.7 | 17.7 | 0.00 | 1.04 | 0.20 | 90 | 1011.2 |
| 20260507045705 | 6 | 41 | 9.7 | 14.5 | 0.00 | 1.04 | 0.20 | 91 | 1011.3 |
| 20260507045205 | 6 | 21 | 8.0 | 22.5 | 0.03 | 1.04 | 0.20 | 91 | 1011.2 |
| 20260507044706 | 6 | 31 | 9.7 | 16.1 | 0.03 | 1.04 | 0.20 | 91 | 1011.0 |
| 20260507044205 | 6 | 31 | 11.3 | 22.5 | 0.03 | 1.04 | 0.20 | 91 | 1011.0 |
| 20260507043706 | 6 | 26 | 11.3 | 19.3 | 0.03 | 1.04 | 0.20 | 91 | 1011.0 |
| 20260507043205 | 6 | 26 | 11.3 | 20.9 | 0.03 | 1.04 | 0.20 | 91 | 1010.9 |
| 20260507042706 | 6 | 31 | 11.3 | 19.3 | 0.03 | 1.04 | 0.20 | 92 | 1010.8 |
| 20260507042206 | 6 | 48 | 11.3 | 20.9 | 0.03 | 1.55 | 0.20 | 92 | 1010.8 |
| 20260507041706 | 6 | 21 | 8.0 | 20.9 | 0.03 | 1.55 | 0.20 | 92 | 1010.6 |
| 20260507041206 | 6 | 59 | 6.4 | 17.7 | 0.03 | 1.55 | 0.20 | 93 | 1010.6 |
| 20260507040706 | 6 | 26 | 6.4 | 12.9 | 0.03 | 1.55 | 0.20 | 93 | 1010.5 |
| 20260507040206 | 6 | 56 | 9.7 | 16.1 | 0.03 | 1.55 | 0.20 | 93 | 1010.6 |
| 20260507035706 | 6 | 78 | 8.0 | 17.7 | 0.03 | 1.55 | 0.20 | 93 | 1010.5 |
| 20260507035206 | 6 | 43 | 6.4 | 17.7 | 0.00 | 1.52 | 0.18 | 93 | 1010.5 |
| 20260507034706 | 6 | 46 | 8.0 | 17.7 | 0.00 | 1.52 | 0.18 | 93 | 1010.5 |
| 20260507034206 | 6 | 85 | 8.0 | 17.7 | 0.00 | 1.52 | 0.18 | 93 | 1010.4 |
| 20260507033706 | 6 | 70 | 8.0 | 16.1 | 0.00 | 1.52 | 0.18 | 93 | 1010.5 |
| 20260507033206 | 6 | 58 | 6.4 | 14.5 | 0.00 | 1.52 | 0.18 | 93 | 1010.5 |
| 20260507032706 | 7 | 41 | 6.4 | 19.3 | 0.00 | 1.52 | 0.18 | 93 | 1010.5 |
| 20260507032206 | 7 | 52 | 8.0 | 16.1 | 0.00 | 1.88 | 0.18 | 93 | 1010.4 |
| 20260507031706 | 7 | 86 | 8.0 | 17.7 | 0.00 | 1.88 | 0.18 | 92 | 1010.5 |
| 20260507031206 | 7 | 43 | 6.4 | 12.9 | 0.00 | 1.88 | 0.18 | 93 | 1010.4 |
| 20260507030706 | 7 | 45 | 6.4 | 17.7 | 0.00 | 1.88 | 0.18 | 93 | 1010.4 |
| 20260507030206 | 7 | 21 | 8.0 | 16.1 | 0.00 | 1.88 | 0.18 | 93 | 1010.3 |
| 20260507025706 | 7 | 31 | 6.4 | 11.3 | 0.00 | 1.88 | 0.18 | 93 | 1010.2 |
| 20260507025206 | 7 | 35 | 4.8 | 16.1 | 0.00 | 1.88 | 0.18 | 92 | 1010.1 |
| 20260507024706 | 7 | 39 | 6.4 | 12.9 | 0.00 | 1.88 | 0.18 | 93 | 1010.1 |
| 20260507024206 | 7 | 75 | 8.0 | 14.5 | 0.00 | 1.88 | 0.18 | 92 | 1010.1 |
| 20260507023706 | 7 | 767 | 9.7 | 16.1 | 0.03 | 1.88 | 0.18 | 92 | 1010.1 |
| 20260507023206 | 7 | 26 | 9.7 | 17.7 | 0.03 | 1.88 | 0.18 | 92 | 1010.0 |
| 20260507022706 | 7 | 31 | 8.0 | 16.1 | 0.03 | 1.88 | 0.18 | 92 | 1010.2 |
| 20260507022206 | 8 | 31 | 6.4 | 12.9 | 0.03 | 2.31 | 0.18 | 93 | 1010.1 |
| 20260507021706 | 8 | 26 | 6.4 | 12.9 | 0.03 | 2.31 | 0.18 | 92 | 1010.0 |
| 20260507021206 | 8 | 66 | 9.7 | 17.7 | 0.03 | 2.31 | 0.18 | 93 | 1010.0 |
| 20260507020706 | 8 | 26 | 9.7 | 16.1 | 0.03 | 2.31 | 0.18 | 93 | 1009.9 |
| 20260507020206 | 8 | 62 | 6.4 | 17.7 | 0.03 | 2.31 | 0.18 | 93 | 1009.7 |
| 20260507015706 | 8 | 41 | 6.4 | 12.9 | 0.05 | 2.31 | 0.18 | 93 | 1009.9 |
| 20260507015206 | 8 | 43 | 6.4 | 12.9 | 0.05 | 2.31 | 0.18 | 93 | 1009.8 |
| 20260507014706 | 8 | 26 | 4.8 | 14.5 | 0.08 | 2.31 | 0.18 | 93 | 1009.9 |
| 20260507014206 | 8 | 31 | 4.8 | 6.4 | 0.10 | 2.31 | 0.18 | 93 | 1009.8 |
| 20260507013706 | 8 | 31 | 4.8 | 9.7 | 0.13 | 2.29 | 0.15 | 93 | 1009.7 |
| 20260507013206 | 8 | 70 | 4.8 | 6.4 | 0.15 | 2.29 | 0.15 | 93 | 1009.6 |
| 20260507012706 | 8 | 42 | 3.2 | 8.0 | 0.15 | 2.29 | 0.15 | 93 | 1009.6 |
| 20260507012206 | 8 | 70 | 3.2 | 12.9 | 0.15 | 2.97 | 0.15 | 93 | 1009.5 |
| 20260507011706 | 9 | 767 | 3.2 | 6.4 | 0.15 | 2.97 | 0.15 | 93 | 1009.4 |
| 20260507011206 | 9 | 35 | 3.2 | 9.7 | 0.15 | 2.97 | 0.15 | 92 | 1009.3 |
| 20260507010706 | 9 | 37 | 3.2 | 6.4 | 0.15 | 2.97 | 0.15 | 92 | 1009.5 |
| 20260507010206 | 9 | 31 | 4.8 | 6.4 | 0.15 | 2.97 | 0.15 | 92 | 1009.4 |
| 20260507005706 | 9 | 37 | 4.8 | 8.0 | 0.13 | 2.95 | 0.13 | 92 | 1009.3 |
| 20260507005206 | 9 | 767 | 4.8 | 8.0 | 0.13 | 2.95 | 0.13 | 91 | 1009.3 |
| 20260507004706 | 9 | 40 | 4.8 | 9.7 | 0.10 | 2.92 | 0.10 | 91 | 1009.3 |
| 20260507004206 | 9 | 66 | 4.8 | 9.7 | 0.08 | 2.90 | 0.08 | 91 | 1009.2 |
| 20260507003706 | 9 | 38 | 4.8 | 11.3 | 0.03 | 2.84 | 0.03 | 91 | 1009.2 |
| 20260507003206 | 9 | 54 | 4.8 | 12.9 | 0.00 | 2.82 | 0.00 | 90 | 1009.3 |
| 20260507002706 | 9 | 37 | 3.2 | 11.3 | 0.00 | 2.82 | 0.00 | 90 | 1009.3 |
| 20260507002206 | 9 | 26 | 3.2 | 6.4 | 0.00 | 3.12 | 0.00 | 90 | 1009.4 |
| 20260507001706 | 9 | 79 | 3.2 | 9.7 | 0.00 | 3.12 | 0.00 | 90 | 1009.2 |
| 20260507001206 | 9 | 48 | 3.2 | 8.0 | 0.00 | 3.12 | 0.00 | 90 | 1009.3 |
| 20260507000706 | 9 | 77 | 3.2 | 9.7 | 0.00 | 3.12 | 0.00 | 90 | 1009.2 |
| 20260507000206 | 9 | 41 | 3.2 | 11.3 | 0.00 | 3.12 | 0.00 | 90 | 1009.1 |
| 20260506235706 | 10 | 56 | 3.2 | 8.0 | 0.00 | 3.12 | 0.00 | 90 | 1009.0 |
| 20260506235206 | 10 | 21 | 3.2 | 6.4 | 0.00 | 3.12 | 0.00 | 90 | 1009.0 |
| 20260506234706 | 10 | 107 | 3.2 | 6.4 | 0.00 | 3.12 | 0.00 | 90 | 1008.9 |
| 20260506234206 | 10 | 87 | 3.2 | 12.9 | 0.00 | 3.12 | 0.00 | 90 | 1008.9 |
| 20260506233706 | 10 | 50 | 3.2 | 8.0 | 0.00 | 3.12 | 0.00 | 90 | 1008.8 |
| 20260506233206 | 10 | 52 | 3.2 | 8.0 | 0.00 | 3.12 | 0.00 | 90 | 1008.9 |
| 20260506232707 | 10 | 118 | 3.2 | 11.3 | 0.00 | 3.12 | 0.00 | 90 | 1008.9 |
| 20260506232206 | 10 | 39 | 4.8 | 8.0 | 0.00 | 3.33 | 0.00 | 90 | 1008.9 |
| 20260506231706 | 10 | 31 | 4.8 | 12.9 | 0.00 | 3.33 | 0.00 | 90 | 1008.8 |
| 20260506231206 | 10 | 26 | 4.8 | 8.0 | 0.00 | 3.33 | 0.00 | 90 | 1008.8 |
| 20260506230706 | 10 | 49 | 3.2 | 8.0 | 0.00 | 3.33 | 0.00 | 90 | 1008.8 |
| 20260506230206 | 10 | 122 | 4.8 | 8.0 | 0.00 | 3.33 | 0.00 | 90 | 1008.9 |
| 20260506225706 | 10 | 51 | 4.8 | 9.7 | 0.00 | 3.33 | 0.00 | 90 | 1008.9 |
| 20260506225206 | 10 | 62 | 4.8 | 11.3 | 0.00 | 3.33 | 0.00 | 90 | 1008.7 |
| 20260506224706 | 10 | 35 | 4.8 | 12.9 | 0.00 | 3.33 | 0.00 | 90 | 1008.7 |
| 20260506224206 | 10 | 58 | 4.8 | 8.0 | 0.00 | 3.33 | 0.00 | 91 | 1008.8 |
| 20260506223706 | 10 | 31 | 3.2 | 11.3 | 0.00 | 3.33 | 0.00 | 91 | 1008.5 |
| 20260506223206 | 10 | 70 | 4.8 | 11.3 | 0.00 | 3.33 | 0.00 | 91 | 1008.6 |
| 20260506222706 | 10 | 31 | 6.4 | 20.9 | 0.00 | 3.33 | 0.00 | 91 | 1008.4 |
| 20260506222206 | 10 | 41 | 4.8 | 9.7 | 0.00 | 3.53 | 0.00 | 91 | 1008.6 |
| 20260506221706 | 10 | 68 | 3.2 | 11.3 | 0.00 | 3.53 | 0.00 | 90 | 1008.5 |
| 20260506221206 | 10 | 87 | 3.2 | 9.7 | 0.00 | 3.53 | 0.00 | 90 | 1008.5 |
| 20260506220706 | 10 | 60 | 3.2 | 8.0 | 0.00 | 3.53 | 0.00 | 91 | 1008.5 |
| 20260506220206 | 10 | 91 | 4.8 | 9.7 | 0.00 | 3.53 | 0.00 | 91 | 1008.4 |
| 20260506215706 | 10 | 38 | 6.4 | 17.7 | 0.00 | 3.53 | 3.58 | 91 | 1008.4 |
| 20260506215206 | 10 | 44 | 6.4 | 14.5 | 0.00 | 3.53 | 3.58 | 91 | 1008.4 |
| 20260506214706 | 10 | 44 | 6.4 | 12.9 | 0.00 | 3.53 | 3.58 | 91 | 1008.5 |
| 20260506214206 | 10 | 36 | 6.4 | 14.5 | 0.00 | 3.53 | 3.58 | 91 | 1008.4 |
| 20260506213706 | 10 | 70 | 4.8 | 12.9 | 0.00 | 3.53 | 3.58 | 91 | 1008.4 |
| 20260506213206 | 10 | 78 | 3.2 | 12.9 | 0.00 | 3.53 | 3.58 | 91 | 1008.3 |
| 20260506212706 | 10 | 46 | 3.2 | 6.4 | 0.00 | 3.53 | 3.58 | 91 | 1008.4 |
| 20260506212206 | 10 | 85 | 3.2 | 11.3 | 0.00 | 3.58 | 3.58 | 91 | 1008.4 |
| 20260506211706 | 10 | 64 | 3.2 | 6.4 | 0.00 | 3.58 | 3.58 | 91 | 1008.4 |
| 20260506211206 | 10 | 107 | 3.2 | 8.0 | 0.00 | 3.58 | 3.58 | 91 | 1008.4 |
| 20260506210706 | 10 | 92 | 3.2 | 8.0 | 0.00 | 3.58 | 3.58 | 91 | 1008.3 |
| 20260506210206 | 10 | 76 | 4.8 | 12.9 | 0.00 | 3.58 | 3.58 | 90 | 1008.3 |
| 20260506205706 | 10 | 100 | 4.8 | 16.1 | 0.00 | 3.58 | 3.58 | 90 | 1008.2 |
| 20260506205206 | 10 | 50 | 4.8 | 11.3 | 0.00 | 3.58 | 3.58 | 91 | 1008.1 |
| 20260506204706 | 10 | 59 | 3.2 | 11.3 | 0.00 | 3.58 | 3.58 | 91 | 1008.2 |
| 20260506204206 | 11 | 767 | 3.2 | 9.7 | 0.00 | 3.58 | 3.58 | 91 | 1008.1 |
| 20260506203706 | 11 | 75 | 3.2 | 6.4 | 0.00 | 3.58 | 3.58 | 91 | 1008.2 |
| 20260506203206 | 11 | 81 | 3.2 | 12.9 | 0.00 | 3.58 | 3.58 | 90 | 1007.9 |
| 20260506202706 | 11 | 82 | 3.2 | 8.0 | 0.00 | 3.58 | 3.58 | 90 | 1007.9 |
| 20260506202206 | 11 | 60 | 3.2 | 8.0 | 0.00 | 3.58 | 3.58 | 90 | 1007.9 |
| 20260506201706 | 11 | 95 | 4.8 | 6.4 | 0.00 | 3.58 | 3.58 | 90 | 1007.8 |
| 20260506201206 | 11 | 31 | 4.8 | 12.9 | 0.00 | 3.58 | 3.58 | 90 | 1007.8 |
| 20260506200706 | 11 | 72 | 4.8 | 8.0 | 0.00 | 3.58 | 3.58 | 90 | 1007.7 |
| 20260506200206 | 11 | 65 | 4.8 | 16.1 | 0.00 | 3.58 | 3.58 | 90 | 1007.7 |
| 20260506195706 | 11 | 85 | 3.2 | 8.0 | 0.00 | 3.58 | 3.58 | 91 | 1007.8 |
| 20260506195206 | 11 | 81 | 3.2 | 8.0 | 0.00 | 3.58 | 3.58 | 91 | 1007.8 |
| 20260506194706 | 11 | 65 | 4.8 | 9.7 | 0.00 | 3.58 | 3.58 | 91 | 1007.7 |
| 20260506194206 | 11 | 39 | 6.4 | 14.5 | 0.00 | 3.58 | 3.58 | 91 | 1007.6 |
| 20260506193706 | 11 | 79 | 8.0 | 17.7 | 0.00 | 3.58 | 3.58 | 91 | 1007.4 |
| 20260506193206 | 11 | 31 | 6.4 | 12.9 | 0.00 | 3.58 | 3.58 | 91 | 1007.4 |
| 20260506192706 | 11 | 26 | 6.4 | 14.5 | 0.00 | 3.58 | 3.58 | 91 | 1007.5 |
| 20260506192206 | 11 | 60 | 6.4 | 14.5 | 0.00 | 3.58 | 3.58 | 91 | 1007.6 |
| 20260506191706 | 11 | 31 | 6.4 | 9.7 | 0.00 | 3.58 | 3.58 | 91 | 1007.7 |
| 20260506191206 | 12 | 58 | 6.4 | 12.9 | 0.00 | 3.58 | 3.58 | 91 | 1007.6 |
| 20260506190706 | 12 | 26 | 4.8 | 11.3 | 0.00 | 3.58 | 3.58 | 91 | 1007.5 |
| 20260506190206 | 12 | 26 | 4.8 | 12.9 | 0.00 | 3.58 | 3.58 | 91 | 1007.4 |
| 20260506185706 | 12 | 58 | 3.2 | 8.0 | 0.00 | 3.58 | 3.58 | 90 | 1007.4 |
| 20260506185206 | 12 | 62 | 3.2 | 6.4 | 0.00 | 3.58 | 3.58 | 90 | 1007.4 |
| 20260506184706 | 12 | 81 | 3.2 | 6.4 | 0.00 | 3.58 | 3.58 | 90 | 1007.1 |
| 20260506184206 | 12 | 42 | 1.6 | 6.4 | 0.00 | 3.58 | 3.58 | 90 | 1007.1 |
| 20260506183706 | 12 | 88 | 1.6 | 6.4 | 0.00 | 3.58 | 3.58 | 90 | 1007.1 |
| 20260506183206 | 12 | 100 | 3.2 | 6.4 | 0.00 | 3.58 | 3.58 | 89 | 1007.0 |
| 20260506182706 | 12 | 53 | 3.2 | 6.4 | 0.00 | 3.58 | 3.58 | 89 | 1006.9 |
| 20260506182206 | 12 | 78 | 4.8 | 12.9 | 0.00 | 3.58 | 3.58 | 89 | 1006.7 |
| 20260506181706 | 12 | 93 | 4.8 | 11.3 | 0.00 | 3.58 | 3.58 | 89 | 1006.7 |
| 20260506181206 | 12 | 41 | 4.8 | 8.0 | 0.00 | 3.58 | 3.58 | 90 | 1006.8 |
| 20260506180706 | 12 | 46 | 6.4 | 14.5 | 0.00 | 3.58 | 3.58 | 90 | 1006.7 |
| 20260506180206 | 12 | 66 | 6.4 | 12.9 | 0.00 | 3.58 | 3.58 | 90 | 1006.7 |
| 20260506175706 | 12 | 35 | 4.8 | 12.9 | 0.00 | 3.58 | 3.58 | 90 | 1006.8 |
| 20260506175206 | 12 | 48 | 3.2 | 8.0 | 0.00 | 3.58 | 3.58 | 90 | 1006.8 |
| 20260506174706 | 12 | 45 | 3.2 | 8.0 | 0.00 | 3.58 | 3.58 | 90 | 1006.8 |
| 20260506174206 | 12 | 62 | 3.2 | 6.4 | 0.00 | 3.58 | 3.58 | 90 | 1006.9 |
| 20260506173840 | 12 | 102 | 3.2 | 8.0 | 0.00 | 3.58 | 3.58 | 89 | 1007.0 |
| 20260506173800 | 12 | 102 | 3.2 | 8.0 | 0.00 | 3.58 | 3.58 | 89 | 1007.0 |
| 20260506173706 | 12 | 102 | 3.2 | 8.0 | 0.00 | 3.58 | 3.58 | 89 | 1007.0 |
| 20260506173206 | 12 | 72 | 3.2 | 11.3 | 0.00 | 3.58 | 3.58 | 89 | 1006.9 |
| 20260506172706 | 12 | 44 | 3.2 | 6.4 | 0.00 | 3.58 | 3.58 | 90 | 1006.9 |
| 20260506172206 | 12 | 84 | 3.2 | 8.0 | 0.00 | 3.58 | 3.58 | 89 | 1006.9 |
| 20260506171706 | 12 | 31 | 3.2 | 6.4 | 0.00 | 3.58 | 3.58 | 90 | 1006.6 |
| 20260506171206 | 12 | 78 | 3.2 | 9.7 | 0.00 | 3.58 | 3.58 | 89 | 1006.7 |
| 20260506170706 | 12 | 71 | 4.8 | 8.0 | 0.00 | 3.58 | 3.58 | 90 | 1006.7 |
| 20260506170206 | 12 | 42 | 3.2 | 9.7 | 0.00 | 3.58 | 3.58 | 90 | 1006.7 |
| 20260506165706 | 12 | 45 | 3.2 | 8.0 | 0.00 | 3.58 | 3.58 | 90 | 1006.7 |
| 20260506165206 | 12 | 63 | 3.2 | 8.0 | 0.00 | 3.58 | 3.58 | 89 | 1006.7 |
| 20260506164706 | 12 | 81 | 3.2 | 8.0 | 0.00 | 3.58 | 3.58 | 89 | 1006.7 |
| 20260506164206 | 12 | 40 | 3.2 | 11.3 | 0.00 | 3.58 | 3.58 | 89 | 1006.7 |
| 20260506163706 | 12 | 45 | 4.8 | 9.7 | 0.00 | 3.58 | 3.58 | 89 | 1006.7 |
| 20260506163206 | 12 | 86 | 4.8 | 8.0 | 0.00 | 3.58 | 3.58 | 90 | 1006.6 |
| 20260506162706 | 12 | 68 | 3.2 | 11.3 | 0.00 | 3.58 | 3.58 | 90 | 1006.6 |
| 20260506162206 | 12 | 90 | 3.2 | 6.4 | 0.00 | 3.58 | 3.58 | 90 | 1006.6 |
| 20260506161706 | 12 | 39 | 4.8 | 4.8 | 0.00 | 3.58 | 3.58 | 91 | 1006.5 |
| 20260506161206 | 12 | 48 | 4.8 | 14.5 | 0.00 | 3.58 | 3.58 | 90 | 1006.5 |
| 20260506160706 | 12 | 61 | 4.8 | 12.9 | 0.00 | 3.58 | 3.58 | 91 | 1006.3 |
| 20260506160206 | 12 | 41 | 4.8 | 8.0 | 0.03 | 3.58 | 3.58 | 91 | 1006.2 |
| 20260506155706 | 12 | 96 | 4.8 | 12.9 | 0.03 | 3.58 | 3.58 | 91 | 1006.2 |
| 20260506155206 | 12 | 68 | 3.2 | 11.3 | 0.05 | 3.58 | 3.58 | 92 | 1006.3 |
| 20260506154706 | 12 | 73 | 3.2 | 8.0 | 0.05 | 3.58 | 3.58 | 92 | 1006.4 |
| 20260506154206 | 12 | 56 | 3.2 | 8.0 | 0.05 | 3.58 | 3.58 | 92 | 1006.4 |
| 20260506153706 | 12 | 73 | 3.2 | 8.0 | 0.05 | 3.58 | 3.58 | 92 | 1006.5 |
| 20260506153206 | 12 | 81 | 3.2 | 8.0 | 0.05 | 3.58 | 3.58 | 93 | 1006.6 |
| 20260506152706 | 12 | 65 | 3.2 | 8.0 | 0.05 | 3.58 | 3.58 | 93 | 1006.5 |
| 20260506152206 | 12 | 61 | 3.2 | 4.8 | 0.05 | 3.58 | 3.58 | 93 | 1006.6 |
| 20260506151706 | 12 | 94 | 4.8 | 11.3 | 0.05 | 3.58 | 3.58 | 92 | 1006.5 |
| 20260506151206 | 12 | 93 | 4.8 | 14.5 | 0.05 | 3.58 | 3.58 | 92 | 1006.5 |
| 20260506150706 | 12 | 77 | 3.2 | 12.9 | 0.05 | 3.58 | 3.58 | 93 | 1006.4 |
| 20260506150206 | 12 | 86 | 3.2 | 6.4 | 0.03 | 3.56 | 3.56 | 93 | 1006.4 |
| 20260506145707 | 12 | 56 | 3.2 | 4.8 | 0.03 | 3.56 | 3.56 | 93 | 1006.5 |
| 20260506145206 | 12 | 74 | 3.2 | 8.0 | 0.00 | 3.53 | 3.53 | 92 | 1006.6 |
| 20260506144706 | 12 | 31 | 3.2 | 8.0 | 0.00 | 3.53 | 3.53 | 92 | 1006.5 |
| 20260506144207 | 12 | 55 | 3.2 | 6.4 | 0.00 | 3.53 | 3.53 | 92 | 1006.6 |
| 20260506143707 | 12 | 48 | 3.2 | 8.0 | 0.00 | 3.53 | 3.53 | 92 | 1006.7 |
| 20260506143207 | 12 | 88 | 4.8 | 8.0 | 0.00 | 3.53 | 3.53 | 91 | 1006.6 |
| 20260506142707 | 12 | 52 | 3.2 | 8.0 | 0.00 | 3.53 | 3.53 | 91 | 1006.6 |
| 20260506142207 | 12 | 83 | 3.2 | 9.7 | 0.00 | 3.53 | 3.53 | 91 | 1006.6 |
| 20260506141707 | 12 | 39 | 3.2 | 6.4 | 0.00 | 3.53 | 3.53 | 91 | 1006.7 |
| 20260506141207 | 12 | 43 | 3.2 | 11.3 | 0.00 | 3.53 | 3.53 | 91 | 1006.6 |
| 20260506140707 | 12 | 36 | 3.2 | 8.0 | 0.00 | 3.53 | 3.53 | 90 | 1006.6 |
| 20260506140207 | 12 | 72 | 3.2 | 6.4 | 0.00 | 3.53 | 3.53 | 90 | 1006.6 |
| 20260506135707 | 12 | 101 | 3.2 | 8.0 | 0.00 | 3.53 | 3.53 | 89 | 1006.6 |
| 20260506135207 | 13 | 31 | 3.2 | 8.0 | 0.00 | 3.53 | 3.53 | 89 | 1006.6 |
| 20260506134707 | 13 | 72 | 1.6 | 11.3 | 0.00 | 3.53 | 3.53 | 89 | 1006.6 |
| 20260506134207 | 13 | 36 | 1.6 | 6.4 | 0.00 | 3.53 | 3.53 | 90 | 1006.7 |
| 20260506133707 | 13 | 26 | 3.2 | 6.4 | 0.00 | 3.53 | 3.53 | 90 | 1006.6 |
| 20260506133207 | 13 | 47 | 3.2 | 6.4 | 0.00 | 3.53 | 3.53 | 90 | 1006.6 |
| 20260506132707 | 13 | 77 | 3.2 | 6.4 | 0.00 | 3.53 | 3.53 | 90 | 1006.6 |
| 20260506132207 | 13 | 85 | 3.2 | 6.4 | 0.00 | 3.53 | 3.53 | 91 | 1006.6 |
| 20260506131707 | 13 | 72 | 3.2 | 8.0 | 0.00 | 3.53 | 3.53 | 91 | 1006.5 |
| 20260506131207 | 12 | 93 | 3.2 | 8.0 | 0.00 | 3.53 | 3.53 | 91 | 1006.5 |
| 20260506130707 | 12 | 60 | 3.2 | 8.0 | 0.00 | 3.53 | 3.53 | 92 | 1006.5 |
| 20260506130207 | 12 | 61 | 3.2 | 9.7 | 0.00 | 3.53 | 3.53 | 92 | 1006.5 |
| 20260506125707 | 12 | 68 | 3.2 | 6.4 | 0.00 | 3.53 | 3.53 | 93 | 1006.6 |
| 20260506125207 | 12 | 47 | 3.2 | 6.4 | 0.03 | 3.53 | 3.53 | 94 | 1006.5 |
| 20260506124707 | 12 | 95 | 4.8 | 8.0 | 0.03 | 3.53 | 3.53 | 93 | 1006.6 |
| 20260506124207 | 12 | 69 | 3.2 | 9.7 | 0.03 | 3.53 | 3.53 | 94 | 1006.6 |
| 20260506123707 | 12 | 35 | 3.2 | 6.4 | 0.05 | 3.53 | 3.53 | 94 | 1006.6 |
| 20260506123207 | 12 | 97 | 3.2 | 6.4 | 0.08 | 3.53 | 3.53 | 94 | 1006.6 |
| 20260506122707 | 12 | 66 | 1.6 | 4.8 | 0.10 | 3.53 | 3.53 | 94 | 1006.6 |
| 20260506122207 | 12 | 95 | 3.2 | 4.8 | 0.10 | 3.53 | 3.53 | 95 | 1006.6 |
| 20260506121707 | 12 | 86 | 3.2 | 8.0 | 0.10 | 3.53 | 3.53 | 95 | 1006.6 |
| 20260506121207 | 12 | 38 | 3.2 | 6.4 | 0.10 | 3.53 | 3.53 | 95 | 1006.6 |
| 20260506120707 | 12 | 91 | 3.2 | 4.8 | 0.10 | 3.53 | 3.53 | 95 | 1006.5 |
| 20260506120207 | 12 | 61 | 3.2 | 4.8 | 0.10 | 3.53 | 3.53 | 95 | 1006.5 |
| 20260506115707 | 11 | 44 | 4.8 | 9.7 | 0.10 | 3.53 | 3.53 | 95 | 1006.5 |
| 20260506115207 | 11 | 37 | 4.8 | 9.7 | 0.08 | 3.51 | 3.51 | 94 | 1006.5 |
| 20260506114707 | 11 | 26 | 4.8 | 8.0 | 0.08 | 3.51 | 3.51 | 94 | 1006.5 |
| 20260506114207 | 11 | 26 | 4.8 | 9.7 | 0.08 | 3.51 | 3.51 | 94 | 1006.7 |
| 20260506113707 | 11 | 26 | 3.2 | 8.0 | 0.08 | 3.48 | 3.48 | 94 | 1006.7 |